Dati Storici

Data ora Umidita' aria (%) Temperatura aria (°C) Rad globale (W/m²) Gonioanemometro (°) Tacoanemometro (m/s) Pioggia (mm)
25-10-2012 16:50 63 % 17.58 109.91 108.516 1.025 0
25-10-2012 16:40 62.1 % 17.793 130.51 137.715 0.777 0
25-10-2012 16:30 62.4 % 18.12 153.32 133.735 0.973 0
25-10-2012 16:20 62.2 % 17.91 178.308 121.369 1.462 0
25-10-2012 16:10 61.8 % 17.653 205.351 108.986 1.548 0
25-10-2012 16:00 61.2 % 17.787 227.62 96.678 1.117 0
25-10-2012 15:50 61.3 % 17.886 254.24 93.761 0.862 0
25-10-2012 15:40 60.8 % 17.429 286.574 142.684 1.89 0
25-10-2012 15:30 59.5 % 17.801 307.471 127.509 2.114 0
25-10-2012 15:20 61.1 % 18.262 322.931 124.635 1.115 0
25-10-2012 15:10 61.4 % 17.588 348.58 127.562 1.22 0
25-10-2012 15:00 63.8 % 17.488 362.736 135.871 1.829 0
25-10-2012 14:50 64.9 % 17.46 374.004 112.829 1.551 0
25-10-2012 14:40 65.5 % 17.768 393.46 183.942 1.002 0
25-10-2012 14:30 64.2 % 17.759 412.209 125.95 1.679 0
25-10-2012 14:20 63.4 % 18.033 429.59 115.523 1.582 0
25-10-2012 14:10 63.2 % 18.026 435.925 106.468 1.248 0
25-10-2012 14:00 62.8 % 18.049 452.847 146.821 1.581 0
25-10-2012 13:50 61.4 % 17.384 461.388 96.13 1.15 0
25-10-2012 13:40 61.1 % 18.038 465.708 35.314 1.421 0

I dati sono presentati in modo automatico a scopo informativo. In seguito a verifica i dati possono subire modifiche o essere invalidati e non riportati negli archivi definitivi.